TimeEDT,TemperatureF,Dew PointF,Humidity,Sea Level PressureIn,VisibilityMPH,Wind Direction,Wind SpeedMPH,Gust SpeedMPH,PrecipitationIn,Events,Conditions,WindDirDegrees,DateUTC
12:51 AM,53.1,37.0,55,30.11,10.0,ENE,3.5,-,N/A,,Clear,60,2013-10-16 04:51:00
1:51 AM,50.0,41.0,71,30.11,10.0,Calm,Calm,-,N/A,,Mostly Cloudy,0,2013-10-16 05:51:00
2:19 AM,51.8,37.4,58,30.11,10.0,Calm,Calm,-,N/A,,Scattered Clouds,0,2013-10-16 06:19:00
2:38 AM,51.8,41.0,67,30.10,10.0,Calm,Calm,-,N/A,,Mostly Cloudy,0,2013-10-16 06:38:00
2:51 AM,51.1,43.0,74,30.10,10.0,Calm,Calm,-,N/A,,Overcast,0,2013-10-16 06:51:00
3:51 AM,51.1,44.1,77,30.10,10.0,Calm,Calm,-,N/A,,Overcast,0,2013-10-16 07:51:00
4:26 AM,51.8,44.6,76,30.10,10.0,Calm,Calm,-,N/A,,Mostly Cloudy,0,2013-10-16 08:26:00
4:49 AM,50.0,46.4,87,30.10,10.0,NE,3.5,-,N/A,,Mostly Cloudy,50,2013-10-16 08:49:00
4:51 AM,50.0,46.0,86,30.09,10.0,East,4.6,-,N/A,,Mostly Cloudy,80,2013-10-16 08:51:00
5:51 AM,51.1,46.0,83,30.09,10.0,NNE,3.5,-,N/A,,Overcast,20,2013-10-16 09:51:00
6:51 AM,54.0,45.0,72,30.09,10.0,Calm,Calm,-,N/A,,Overcast,0,2013-10-16 10:51:00
7:32 AM,53.6,44.6,72,30.08,10.0,East,3.5,-,N/A,,Overcast,90,2013-10-16 11:32:00
7:51 AM,54.0,46.0,75,30.07,10.0,East,4.6,-,N/A,,Overcast,90,2013-10-16 11:51:00
8:04 AM,53.6,46.4,77,30.08,10.0,East,3.5,-,N/A,,Overcast,80,2013-10-16 12:04:00
8:51 AM,54.0,48.0,80,30.10,10.0,Calm,Calm,-,N/A,,Overcast,0,2013-10-16 12:51:00
9:41 AM,55.4,50.0,82,30.07,10.0,NE,3.5,-,N/A,,Overcast,50,2013-10-16 13:41:00
9:51 AM,55.9,50.0,80,30.08,10.0,ENE,3.5,-,N/A,,Overcast,60,2013-10-16 13:51:00
10:26 AM,57.2,51.8,82,30.07,10.0,ENE,3.5,-,N/A,,Overcast,70,2013-10-16 14:26:00
10:37 AM,57.2,51.8,82,30.07,9.0,Calm,Calm,-,N/A,,Overcast,0,2013-10-16 14:37:00
10:51 AM,57.9,52.0,81,30.07,8.0,Calm,Calm,-,N/A,,Overcast,0,2013-10-16 14:51:00
10:58 AM,57.2,51.8,82,30.07,8.0,Calm,Calm,-,N/A,,Overcast,0,2013-10-16 14:58:00
11:37 AM,59.0,53.6,82,30.05,8.0,ESE,5.8,-,N/A,,Overcast,110,2013-10-16 15:37:00
11:51 AM,59.0,53.1,81,30.05,9.0,East,3.5,-,N/A,,Overcast,90,2013-10-16 15:51:00
12:51 PM,61.0,54.0,78,30.03,9.0,Calm,Calm,-,N/A,,Overcast,0,2013-10-16 16:51:00
1:25 PM,60.8,53.6,77,30.02,10.0,Calm,Calm,-,N/A,,Overcast,0,2013-10-16 17:25:00
1:38 PM,60.8,53.6,77,30.01,10.0,Calm,Calm,-,N/A,,Overcast,0,2013-10-16 17:38:00
1:51 PM,62.1,54.0,75,30.01,10.0,Calm,Calm,-,N/A,,Overcast,0,2013-10-16 17:51:00
2:51 PM,63.0,54.0,72,29.99,10.0,ESE,4.6,-,N/A,,Overcast,110,2013-10-16 18:51:00
3:51 PM,64.0,54.0,70,29.98,10.0,Calm,Calm,-,N/A,,Mostly Cloudy,0,2013-10-16 19:51:00
4:06 PM,64.4,55.4,73,29.98,10.0,Calm,Calm,-,N/A,,Mostly Cloudy,0,2013-10-16 20:06:00
4:16 PM,64.4,53.6,68,29.98,10.0,SSW,3.5,-,N/A,,Scattered Clouds,200,2013-10-16 20:16:00
4:51 PM,63.0,55.0,75,29.97,10.0,SW,3.5,-,N/A,,Mostly Cloudy,230,2013-10-16 20:51:00
5:51 PM,64.0,55.0,73,29.96,10.0,South,3.5,-,N/A,,Overcast,170,2013-10-16 21:51:00
6:51 PM,64.0,55.0,73,29.95,10.0,Calm,Calm,-,N/A,,Overcast,0,2013-10-16 22:51:00
7:51 PM,64.0,55.0,73,29.95,10.0,Calm,Calm,-,N/A,,Overcast,0,2013-10-16 23:51:00
8:51 PM,62.1,55.0,78,29.94,10.0,Calm,Calm,-,N/A,,Mostly Cloudy,0,2013-10-17 00:51:00
9:51 PM,61.0,55.9,83,29.95,10.0,Calm,Calm,-,N/A,,Overcast,0,2013-10-17 01:51:00
10:51 PM,60.1,55.9,86,29.94,10.0,Calm,Calm,-,N/A,,Overcast,0,2013-10-17 02:51:00
11:51 PM,61.0,55.9,83,29.92,10.0,Calm,Calm,-,N/A,,Overcast,0,2013-10-17 03:51:00